map of SCM home
SCM - Airport
Location
City:  Scammon Bay, Alaska, United States
ICAO:PACM
IATA:SCM
FAA LID:SCM

Details
Type:Airport (Airfield)
Use:Public/Civil
Latitude:6150'40"N (61.844542)
Longitude:16534'25"W (-165.573749)
Datum:WGS 1984
Elevation:22 ft (7 m)
Variation:9.56E (WMM2015 magnetic declination)
-0.29 annual change
Runways:1
Longest:3001 × 75 ft (915 × 23 m)

Time
Time Zone:UTC-9 (DST-8)
Local Time:

Weather
METAR:PACM 111756Z AUTO 25027G33KT 1 1/2SM -SN BR FEW012 BKN025 OVC035 M06/M08 A2902 RMK AO2 PK WND 25033/1754 VIS 1/2V4 SLP821 P0000 60000 T10611078 11056 21061 51006 FZRANO

Related Locations
Nearby:
Farthest:FAAF: 10543 mi / 16967 km
Struisbaai [Andrew's Field Airport], WC, ZA

Find:

   beyond  
but within

Other Information
Maps:
NOTAMs:
Links:
Sources:

  
  • flag of United States
  • flag of Alaska
  

Sectional Chart

Flight Planning
at skyvector.com

Satellite Image

Google Maps Satellite view

 

Copyright © 2004-2018 Karl L. Swartz. All rights reserved.
The Great Circle Mapper name and logo are trademarks of the Great Circle Mapper.
All other trademarks mentioned herein belong to their respective owners.
Please see credits for attibutions and further copyright information.

  Follow gcmap on Facebook Follow gcmap on Twitter Follow gcmap on Google+ GCmap on LinkedIn

hCard Microformat

Geo Microformat